Das Wetter in  D-61279 Heinzenberg / Taunus





Wetter Minimum- & Maximum-Werte im August 2009

Standort: Heinzenberg / Taunus - Höhe 297 m         8 24' 1" Ost 50 21' 51" Nord
(   3-stündige Aktualisierung    letzte Aktualisierung um 19:04 am 31.08.2009  )


Messgrösse

Minimum

Maximum

Durchschnitt

Temperatur West /
Luftfeuchte West
Anklicken für Monats-Diagramm

5,6 C

06:58
30.08.2009

26 %

17:04
16.08.2009

35,6 C

17:08
20.08.2009

99 %

04:17
14.08.2009

Temp

18,7 C

Feuchte

72 %

Temperatur Ost /
Luftfeuchte Ost
Anklicken für Monats-Diagramm

5,8 C

07:08
30.08.2009

--

--
--

35,1 C

14:53
20.08.2009

--

--
--

18,6 C

--

Luftdruck Anklicken für Monats-Diagramm

1007,3 hPa

17:57
24.08.2009

1026,2 hPa

03:41
23.08.2009

1017,5 hPa

Taupunkt

3,9 C

14:48
30.08.2009

19,4 C

11:48
20.08.2009

12,6 C

Windchill
( gefühlte Temperatur )

4,3 C

05:18
30.08.2009

35,6 C

17:08
20.08.2009

17,9 C

Windgeschwindigkeit /
Windrichtung
Anklicken für Monats-Diagramm

---

42,1 km/h / W

13:16
28.08.2009

6,7 km/h
W-SW

Helligkeit /
Sonnenschein
Anklicken für Monats-Diagramm
Anklicken für Monats-Diagramm

Sonnenschein:

234:40 Stunden

Max: 13:25 Std am
04.08.2009

122 klux

14:14
11.08.2009

39 klux

Solarstrahlung Anklicken für Monats-Diagramm

---

834 W/m

14:14
11.08.2009

284 W/m

Regenmenge
    August 2009
Anklicken für Monats-Diagramm

Insgesamt 40,0 l/m

in 21:59 Stunden
an 12 Tagen

17,8 l/m

04:19
21.08.2009

Gesamtmenge

40,0 l/m

Regen-Tage
    August 2009
Anklicken für Monats-Diagramm

>   0 mm/Tag

>   2 mm/Tag

>   5 mm/Tag

> 10 mm/Tag

> 20 mm/Tag

12 Tage     
5 Tage     
2 Tage     
  1 Tag     
0 Tage     

Eisige Tage August 2009 / 2008

Tmin ≤ -10C     

0 Tage

/

0 Tage

Eistage August 2009 / 2008

Tmax <     0C     

0 Tage

/

0 Tage

Frosttage August 2009 / 2008

Tmin ≤     0C     

0 Tage

/

0 Tage

Kalte Tage August 2009 / 2008

Tmax <   10C     

0 Tage

/

0 Tage

Warme Tage August 2009 / 2008

Tmax ≥   20C     

31 Tage

/

27 Tage

Sommertage August 2009 / 2008

Tmax ≥   25C     

18 Tage

/

8 Tage

Heisse Tage August 2009 / 2008

Tmax ≥   30C     

6 Tage

/

  1 Tag


Monatsdiagramm August 2009

Die Kurven zeigen den Durchschnittswert des jeweiligen Tages an


Wetter-Monatsübersicht August 2009
Datum
  Temperatur
   Luftdruck
   Wind
  Regen
   Luftfeuchte
   Helligkeit

Sonnen-
schein


Temp.

Min.
Temp.

Max.
Temp.


Luftdruck

Min.
Luftdruck

Max.
Luftdruck

-Geschw.
Haupt-Richtg.

Max.
Wind

Menge /
Dauer


Feuchte

Min.
Feuchte

Max.
Feuchte


Helligkeit

Max.
Helligkeit

1.
August
18,2 C8,8 C
06:20
29,1 C
17:55
1014,8 hPa1009,6 hPa
19:25
1020,8 hPa
01:25
5,7 km/h
SO
22,3 km/h
16:15  
---
66 %35 %
17:45
91 %
08:15
39,9 klux106,0 klux
14:50
8:25 Std 
2.
August
17,7 C13,7 C
05:06
22,6 C
16:06
1010,8 hPa1007,3 hPa
08:46
1016,3 hPa
23:57
12,3 km/h
W-SW
39,5 km/h
17:51  
2,6 l/m
1:40 Stunden
80 %65 %
09:16
91 %
19:11
20 klux86 klux
12:11
1:05 Std 
3.
August
16,9 C13,4 C
04:32
22,5 C
14:37
1016,8 hPa1015,4 hPa
18:52
1019,4 hPa
23:53
3,4 km/h
NW
17,6 km/h
14:07  
---
10 Minuten
74 %46 %
19:07
95 %
05:27
36,0 klux119,0 klux
12:07
4:35 Std 
4.
August
17,5 C9,3 C
06:28
26,0 C
18:38
1020,7 hPa1019,1 hPa
18:38
1022,7 hPa
23:59
3,7 km/h
W-NW
17,0 km/h
13:08  
---
64 %31 %
16:53
93 %
07:08
53 klux105 klux
12:38
13:25 Std 
5.
August
18,8 C8,7 C
06:54
29,4 C
18:04
1021,3 hPa1018,7 hPa
18:04
1023,2 hPa
06:54
4,2 km/h
SO
19,9 km/h
17:09  
---
62 %31 %
17:19
91 %
07:49
52 klux95 klux
13:14
13:10 Std 
6.
August
20,8 C11,0 C
06:25
30,9 C
17:40
1019,7 hPa1016,5 hPa
18:30
1021,9 hPa
06:25
7,2 km/h
SO
27,8 km/h
12:40  
---
62 %31 %
17:15
91 %
07:35
52,0 klux102,0 klux
13:50
13:10 Std 
7.
August
21,9 C13,4 C
07:10
30,8 C
17:50
1017,1 hPa1014,5 hPa
18:35
1019,1 hPa
00:15
5,7 km/h
SO
28,2 km/h
12:10  
---
61 %30 %
17:45
90 %
07:50
50 klux100 klux
13:25
10:55 Std 
8.
August
19,6 C16,4 C
06:06
22,6 C
18:26
1017,7 hPa1016,5 hPa
19:36
1019,0 hPa
23:57
3,8 km/h
NW
13,3 km/h
12:21  
---
10 Minuten
78 %71 %
17:01
90 %
08:06
17 klux33 klux
10:26
5 Min 
9.
August
19,9 C15,4 C
06:02
25,8 C
14:47
1017,1 hPa1015,1 hPa
18:47
1019,1 hPa
02:12
1,6 km/h
NW
12,0 km/h
12:32  
---
80 %57 %
14:47
95 %
06:52
29,7 klux96,9 klux
13:42
2:55 Std 
10.
August
18,8 C15,3 C
06:33
24,7 C
17:48
1015,6 hPa1014,1 hPa
17:48
1017,2 hPa
23:39
2,9 km/h
NW
15,4 km/h
17:23  
1,7 l/m
1:30 Stunden
85 %65 %
17:58
95 %
06:43
20,3 klux91,4 klux
15:13
1:50 Std 
11.
August
17,8 C14,2 C
06:59
23,6 C
17:34
1018,1 hPa1016,1 hPa
00:04
1020,1 hPa
23:50
7,7 km/h
W
25,8 km/h
12:34  
0,5 l/m
2:10 Stunden
83 %64 %
17:34
97 %
07:39
24,3 klux122,0 klux
14:14
1:30 Std 
12.
August
18,3 C13,8 C
07:05
23,4 C
17:20
1018,8 hPa1015,4 hPa
18:25
1021,6 hPa
07:30
8,6 km/h
W
32,3 km/h
14:05  
3,5 l/m
1:35 Stunden
78 %53 %
14:10
95 %
23:06
29 klux108 klux
11:35
2:45 Std 
13.
August
17,4 C14,5 C
23:57
23,1 C
14:21
1016,6 hPa1015,3 hPa
14:21
1018,4 hPa
23:57
4,9 km/h
W-NW
20,1 km/h
14:21  
4,6 l/m
6:34 Stunden
88 %58 %
14:21
97 %
02:11
31 klux111 klux
13:06
3:10 Std 
14.
August
16,7 C12,0 C
05:02
23,6 C
18:12
1018,6 hPa1017,3 hPa
18:12
1020,4 hPa
10:32
3,4 km/h
W-NW
20,0 km/h
17:02  
---
81 %44 %
17:02
99 %
04:17
39 klux108 klux
12:27
6:40 Std 
15.
August
19,1 C10,0 C
06:28
29,4 C
18:03
1017,6 hPa1014,6 hPa
18:03
1020,0 hPa
06:28
6,2 km/h
W-SW
27,8 km/h
16:13  
---
68 %34 %
18:38
95 %
07:33
51 klux90 klux
13:03
12:50 Std 
16.
August
21,8 C13,0 C
06:29
32,1 C
17:04
1015,0 hPa1012,2 hPa
17:04
1017,4 hPa
08:04
9,8 km/h
W-SW
39,3 km/h
17:44  
0,2 l/m
15 Minuten
65 %26 %
17:04
92 %
07:54
48,3 klux98,8 klux
14:04
11:15 Std 
17.
August
20,9 C14,6 C
06:55
28,5 C
16:20
1014,2 hPa1010,6 hPa
17:35
1017,0 hPa
23:56
7,0 km/h
W-NW
27,3 km/h
21:30  
---
5 Minuten
74 %50 %
16:05
94 %
07:15
38,4 klux101,0 klux
13:50
6:40 Std 
18.
August
19,3 C11,3 C
07:16
28,5 C
17:26
1020,5 hPa1017,0 hPa
00:01
1022,4 hPa
23:42
3,0 km/h
W-NW
16,5 km/h
14:06  
---
63 %30 %
17:31
93 %
07:46
50 klux91 klux
13:51
12:10 Std 
19.
August
21,4 C10,9 C
06:57
32,4 C
17:12
1020,5 hPa1017,5 hPa
19:07
1023,0 hPa
06:57
8,4 km/h
SO
29,2 km/h
14:17  
---
62 %32 %
17:27
90 %
07:12
50,3 klux87,0 klux
13:27
12:40 Std 
20.
August
25,0 C15,4 C
07:08
35,6 C
17:08
1017,5 hPa1013,3 hPa
19:38
1021,1 hPa
01:43
9,5 km/h
SO
31,0 km/h
23:39  
---
61 %29 %
18:23
92 %
07:28
44,7 klux92,7 klux
13:08
9:35 Std 
21.
August
16,9 C12,0 C
23:40
22,7 C
00:04
1021,1 hPa1017,5 hPa
00:49
1022,8 hPa
23:40
6,5 km/h
W
21,6 km/h
04:24  
17,8 l/m
5:05 Stunden
86 %62 %
00:04
96 %
06:39
17,3 klux67,3 klux
17:24
2:30 Std 
22.
August
15,9 C10,3 C
06:25
22,4 C
18:15
1024,1 hPa1022,6 hPa
18:15
1025,9 hPa
23:56
2,4 km/h
W-NW
17,6 km/h
14:15  
---
78 %47 %
15:00
98 %
07:10
38,2 klux102,0 klux
12:20
6:45 Std 
23.
August
17,1 C8,4 C
07:16
26,6 C
17:46
1022,0 hPa1016,6 hPa
20:31
1026,2 hPa
03:41
8,7 km/h
SO
35,7 km/h
16:36  
---
65 %29 %
16:31
96 %
08:21
49 klux95 klux
13:36
12:00 Std 
24.
August
19,1 C8,6 C
06:52
30,1 C
17:57
1011,7 hPa1007,3 hPa
17:57
1017,7 hPa
00:52
8,7 km/h
O-SO
35,5 km/h
08:32  
---
66 %34 %
18:12
95 %
08:12
49,4 klux85,6 klux
13:22
12:10 Std 
25.
August
18,6 C15,1 C
03:43
25,1 C
12:48
1010,7 hPa1008,8 hPa
00:03
1013,9 hPa
23:49
7,0 km/h
W-SW
36,9 km/h
16:33  
9,3 l/m
2:40 Stunden
83 %61 %
12:43
96 %
23:54
18,9 klux98,0 klux
12:18
1:05 Std 
26.
August
18,9 C13,2 C
06:39
26,0 C
17:29
1016,0 hPa1013,9 hPa
00:04
1017,8 hPa
11:09
3,5 km/h
W-SW
21,1 km/h
17:49  
---
79 %49 %
13:44
99 %
09:04
40,8 klux96,7 klux
14:19
7:25 Std 
27.
August
20,4 C13,8 C
05:55
29,0 C
17:35
1016,2 hPa1013,7 hPa
18:05
1018,4 hPa
07:55
6,7 km/h
W-SW
32,4 km/h
15:10  
---
73 %40 %
17:35
97 %
08:40
43,3 klux101,0 klux
13:25
8:50 Std 
28.
August
19,0 C14,3 C
23:07
23,6 C
17:21
1013,6 hPa1011,8 hPa
07:51
1016,3 hPa
23:07
15,1 km/h
W
42,1 km/h
13:16  
---
67 %43 %
18:16
87 %
06:01
33 klux113 klux
13:36
5:30 Std 
29.
August
15,1 C9,5 C
23:58
20,3 C
18:22
1019,5 hPa1016,2 hPa
00:47
1023,1 hPa
23:58
16,8 km/h
W
35,1 km/h
16:02  
---
5 Minuten
60 %37 %
18:32
78 %
23:58
38 klux112 klux
13:27
7:35 Std 
30.
August
13,8 C5,6 C
06:58
23,5 C
17:38
1021,6 hPa1018,5 hPa
19:18
1023,4 hPa
02:18
7,8 km/h
W
31,6 km/h
13:53  
---
64 %31 %
17:43
91 %
07:48
46 klux98 klux
13:23
10:15 Std 
31.
August
16,8 C7,2 C
06:24
28,6 C
17:49
1018,5 hPa1013,7 hPa
18:19
1022,4 hPa
07:34
6,1 km/h
SO
24,9 km/h
15:34  
---
60 %26 %
17:19
90 %
07:44
48,1 klux84,8 klux
13:09
11:45 Std 



August
2009

Temperatur

  

Luftdruck

  

Wind

  

Regen

  

Luftfeuchte

  

Helligkeit

Sonnen-
schein

Min

Max

Min

Max

Max

Max

Min

Max

Max

Max

18,7 C

5,6 C

06:58 Uhr
30.08.2009

35,6 C

17:08 Uhr
20.08.2009

1017,5 hPa

1007,3 hPa

17:57 Uhr
24.08.2009

1026,2 hPa

03:41 Uhr
23.08.2009

6,7 km/h

W-SW

42,1 km/h

13:16 Uhr
28.08.2009

17,8 l/m

5:05 Stunden
21.08.2009

72 %

26 %

17:04 Uhr
16.08.2009

99 %

04:17 Uhr
14.08.2009

38,6 klux

122,0 klux

14:14 Uhr
11.08.2009

13:25 Std

am
04.08.2009

Gesamt

Gesamt

40,0 l/m

12 Tage
21:59 h

234:40 Std


Wetter-Diagramme August 2009     Heinzenberg / Taunus   
TemperaturLuftfeuchte
SolarstrahlungLuftdruck
HelligkeitSonnenschein
RegenmengeRegendauer
Wind-GeschwindigkeitWind-Richtung